BARDUFOSS_(CIV/MIL) current weather conditions

sailwx.info

Wind from 270 at 8 knots

Air temperature -2.0° C
Visibility: greater than 0.6 NM
Dewpoint -2.0° C
Present weather: Snow showers.

Last reported at 2020-Jan-22 13:50 UTC.
Time now 2020-Jan-22 14:57 UTC

Location: N 69°03' E 018°33'.
View on Google Maps.

See reports from other nearby stations

  
Tides and Currents Weather Stations Pressure Air Temp Water Temp Dewpoint Dewpoint Depression Visibility Wind Speed Wind Dir Waves Ship Positions
date/time (UTC)wind fromknots sea level pressurealtimeterstation pressurevisibilityair tempwater tempwave heightnotes
2020-Jan-22 13:50 270 8 0.6-2.0 Snow showers.
2020-Jan-22 13:20 260 4 0.6-2.0 Snow showers.
2020-Jan-22 12:50 240 6 1.1-2.0 Snow showers.
2020-Jan-22 12:20 250 6 0.8-2.0 Snow showers.
2020-Jan-22 11:50 250 4 0.8-3.0 Snow showers.
2020-Jan-22 11:20 240 5 5.4-3.0 Showers in the vicinity.
2020-Jan-22 10:50 260 6 5.4-3.0 Light snow showers.
2020-Jan-22 10:20 250 6 5.4-3.0 Showers in the vicinity.
2020-Jan-22 09:50 260 5 5.4-3.0 Showers in the vicinity.
2020-Jan-22 09:20 260 6 5.4-3.0 Light snow showers.
2020-Jan-22 08:50 280 14 5.4-3.0 Showers in the vicinity.
2020-Jan-22 08:20 270 6 5.4-3.0 Light snow showers.
2020-Jan-22 07:50 260 6 5.4-3.0 Showers in the vicinity.
2020-Jan-22 07:20 290 6 5.4-3.0 Light snow showers.
2020-Jan-22 06:50 270 6 5.4-3.0 Showers in the vicinity.
2020-Jan-22 06:20 310 9 1.9-2.0 Light snow showers.
2020-Jan-22 05:50 220 5 1.6-3.0 Light snow showers.
2020-Jan-22 05:20 310 7 5.4-2.0 Light snow showers.
2020-Jan-22 04:50 310 9 5.4-1.0 Light snow showers.
2020-Jan-22 04:20 310 17 0.6-1.0 Snow showers.
2020-Jan-22 03:50 290 8 0.6-1.0 Light snow.
2020-Jan-22 03:20 290 11 5.4-1.0 Light snow.
2020-Jan-22 02:50 300 9 1.9-1.0 Light snow.
2020-Jan-22 02:20 250 5 5.4-1.0 Light snow.
2020-Jan-22 01:50 280 9 5.4-1.0
2020-Jan-22 01:20 280 13 5.4-1.0 Light snow.
2020-Jan-22 00:50 280 9 5.4-2.0
2020-Jan-22 00:20 270 8 5.4-1.0
2020-Jan-21 23:50 300 7 5.4-1.0
2020-Jan-21 23:20 270 11 0.6-1.0 Light snow.
2020-Jan-21 22:50 310 6 0.4-1.0 Light snow.
2020-Jan-21 22:20 280 2 5.4-2.0
2020-Jan-21 21:50 240 2 5.4-2.0
2020-Jan-21 20:50 220 4 5.4-2.0
2020-Jan-21 19:50 230 4 5.4-2.0 Light snow showers.
2020-Jan-21 18:50 250 6 5.4-2.0 Showers in the vicinity.
2020-Jan-21 17:50 260 6 5.4-2.0
2020-Jan-21 17:20 250 6 5.4-2.0
2020-Jan-21 16:50 280 15 0.3-2.0 Snow showers.
2020-Jan-21 16:20 270 8 5.4-0.0
2020-Jan-21 15:50 270 9 5.4-0.0 Showers in the vicinity.
2020-Jan-21 15:20 270 9 5.4-1.0
2020-Jan-21 14:50 270 9 gusting 20 5.4-1.0 Showers in the vicinity.
2020-Jan-21 14:20 270 12 1.6-1.0 Light snow showers.
2020-Jan-21 13:50 270 17 1.1-1.0 Snow showers.
2020-Jan-21 13:20 260 13 5.4-0.0 Showers in the vicinity.
2020-Jan-21 12:50 230 6 2.4-1.0 Light snow showers.
2020-Jan-21 12:20 260 9 1.1-1.0 Snow showers.
2020-Jan-21 11:50 250 5 5.4-1.0 Light snow showers.
2020-Jan-21 11:20 240 8 5.4-1.0 Light snow showers.
2020-Jan-21 10:50 220 7 5.4-1.0 Showers in the vicinity.
2020-Jan-21 10:20 240 6 5.4-0.0 Light snow showers.
2020-Jan-21 09:50 240 7 5.4-0.0 Showers in the vicinity.
2020-Jan-21 09:20 260 9 5.4-0.0 Showers in the vicinity.
2020-Jan-21 08:50 260 11 5.4-1.0 Light snow showers.
2020-Jan-21 08:20 270 11 gusting 20 1.6-0.0 Light snow showers.
2020-Jan-21 07:50 260 11 5.4-1.0 Light snow showers.
2020-Jan-21 07:20 250 11 5.4-0.0 Light snow showers.
2020-Jan-21 06:50 260 13 gusting 24 1.9-0.0 Light snow showers.
2020-Jan-21 06:20 250 8 gusting 19 1.0-0.0 Snow showers.
2020-Jan-21 05:50 260 8 gusting 21 1.1 1.0 Snow showers.
2020-Jan-21 05:20 250 6 5.4-0.0 Showers in the vicinity.
2020-Jan-21 04:50 270 18 gusting 34 4.9-0.0 Light snow showers.
2020-Jan-21 04:20 270 15 5.4 1.0 Light snow showers.
2020-Jan-21 03:50 260 12 gusting 25 1.8 1.0 Light snow.
2020-Jan-21 03:20 270 14 0.3 1.0 Light snow.
2020-Jan-21 02:50 260 14 gusting 29 1.6 1.0 Light snow.
2020-Jan-21 02:20 260 6 1.3 1.0 Light snow.
2020-Jan-21 01:50 5.4 1.0 Light rain snow.
2020-Jan-21 01:20 200 8 5.4 2.0 Light rain.
2020-Jan-21 00:50 220 6 5.4 2.0
2020-Jan-21 00:20 230 4 5.4-0.0
2020-Jan-20 23:50 5.4-1.0
2020-Jan-20 23:20 5.4-1.0
2020-Jan-20 22:50 5.4-1.0
2020-Jan-20 22:20 5.4-0.0
2020-Jan-20 21:50 5.4 1.0
2020-Jan-20 20:50 050 4 5.4 1.0 Showers in the vicinity.
2020-Jan-20 19:50 170 4 5.4 2.0 Showers in the vicinity.
2020-Jan-20 18:50 270 13 5.4 2.0 Light drizzle snow.
2020-Jan-20 17:50 210 6 5.4 3.0 Light rain.
2020-Jan-20 17:20 220 6 5.4 3.0 Light drizzle snow.
2020-Jan-20 16:50 210 6 5.4 3.0 Light drizzle snow.
2020-Jan-20 16:20 220 6 5.4 3.0 Light rain.
2020-Jan-20 15:50 200 6 5.4 4.0 Light rain.
2020-Jan-20 15:20 210 6 5.4 4.0 Light rain.
2020-Jan-20 14:50 210 8 5.4 4.0 Light rain.
2020-Jan-20 14:20 210 7 5.4 4.0 Light rain.